Location: Newark
(40.7066°N, 111.8219°W)
Time: 08:57:19
(UTC+00:00)

Transit 2A Rocket - Pass Details

Date: 28 November 2019
Orbit: 594 x 909 km, 66.7° (Epoch: 07 December)

Event Time Altitude Azimuth Distance (km) Brightness Sun altitude
Rises 01:14:16 0° 157° (SSE) 3,076 8.1 -13.5°
Reaches altitude 10° 01:18:18 10° 125° (SE) 2,086 6.9 -14.3°
Enters shadow 01:18:35 10° 122° (ESE) 2,050 6.8 -14.3°
Maximum altitude 01:19:48 11° 106° (ESE) 1,968 - -14.5°
Drops below altitude 10° 01:21:16 10° 87° (E) 2,039 - -14.8°
Sets 01:25:03 0° 54° (NE) 2,898 - -15.5°
